QIKCOM-1 (42983 NORAD) Tracking and Keplerian Element Data

This shows tracking and keplerian element data for the satellite.

Feedback or suggestion? Click here.




ElementValue
Catalog42983
NameQIKCOM-1
Epoch Orbit17014
Epoch Day296.49238319
Epoch Year2020
RAAN24.6454
Inclination51.6394
Eccentricity0.0003307
Argument of Perigee168.0989
Mean Anonmoly192.0084
Mean Motion15.62669723
Decay Rate6.841E-05
L11 42983U 98067NF 20296.49238319 .00006841 00000-0 80652-4 0 9998
L22 42983 51.6394 24.6454 0003307 168.0989 192.0084 15.62669723170149

Live tracking and technical data element details for QIKCOM-1 (NORAD 42983). QIKCOM-1 can be tracked NOW for your location showing map with azimuth and elevation plus other details from your city location.

Track the satellite on the map from your city or location and see movement details for azimuth, elevation, latitude, longitude, range, height, and movement on the map or in text.







IsCatalogInMostPopularTable: catalog: 42983, numindb: 384
Update: records affected: 1



GetName: 42983 QIKCOM-1

Hit Count: updated at: Sun, 25 Oct 2020 07:24:21 GMT